Location: T. Spence Memorial Observatory
(32.7356°N, 82.2098°W)
Time: 18:03:38
(UTC-04:00)

Cosmos 2219 - Visible Passes

Search period start: 29 July 2015 00:00
Search period end: 08 August 2015 00:00
Orbit: 834 x 860 km, 71.1° (Epoch: 28 July)

Date Brightness Start Highest point End Pass type
(mag) Time Alt. Az. Time Alt. Az. Time Alt. Az.
29 Jul 5.1 04:17:01 10° N 04:21:55 29° ENE 04:26:56 10° ESE visible
29 Jul 3.9 06:01:02 10° NW 06:06:04 32° WSW 06:11:01 10° SSW visible
30 Jul 5.1 04:03:38 10° N 04:08:30 29° ENE 04:13:28 10° ESE visible
30 Jul 3.9 05:47:35 10° NW 05:52:40 32° WSW 05:57:40 10° SSW visible
31 Jul 5.1 03:50:15 10° N 03:55:04 28° ENE 04:00:00 10° ESE visible
31 Jul 3.8 05:34:08 10° NW 05:39:16 33° WSW 05:44:18 10° SSW visible
01 Aug 5.1 03:36:52 10° N 03:41:39 27° ENE 03:46:32 10° ESE visible
01 Aug 3.8 05:20:43 10° NW 05:25:52 34° WSW 05:30:56 10° SSW visible
02 Aug 5.1 03:23:29 10° N 03:28:13 27° ENE 03:32:52 11° ESE visible
02 Aug 3.8 05:07:16 10° NW 05:12:28 35° WSW 05:14:36 26° SW visible
03 Aug 5.1 03:10:06 10° N 03:14:48 26° ENE 03:17:29 19° E visible
03 Aug 3.7 04:53:50 10° NW 04:59:03 36° WSW 04:59:16 36° WSW visible
04 Aug 5.0 02:56:44 10° N 03:01:23 26° ENE 03:02:43 24° E visible
04 Aug 4.0 04:40:24 10° NW 04:44:32 34° W 04:44:32 34° W visible
05 Aug 5.0 02:43:21 10° N 02:47:57 25° ENE 02:48:18 25° ENE visible
05 Aug 4.4 04:26:58 10° NW 04:30:08 28° WNW 04:30:08 28° WNW visible
06 Aug 5.1 02:30:00 10° N 02:34:07 24° NE 02:34:07 24° NE visible
06 Aug 4.7 04:13:32 10° NW 04:15:57 24° NW 04:15:57 24° NW visible
07 Aug 5.2 02:16:37 10° N 02:20:06 23° NE 02:20:06 23° NE visible
07 Aug 5.0 04:00:06 10° NW 04:01:58 20° NW 04:01:58 20° NW visible
